Flag for Germany Weather past 2 weeks in Senftenberg, Brandenburg, Germany

Now
42 °F

Overcast.


Feels Like: 40 °F
Forecast: 43 / 55 °F
Wind: 3 mph from West

Location: Cottbus

Current Time: Mar 28, 2015 at 7:07:12 AM

Latest Report: Mar 28, 2015 at 6:00 AM


Visibility: 5 mi

Pressure: 30.14 "Hg

Humidity: 87%

Dew point: 39 °F

Location of SenftenbergLocation

Historic Weather in Senftenberg — Graph

°F

Senftenberg temperature yesterday

Maximum temperature yesterday: 52 °F (at 4:00 PM)
Minimum temperature yesterday: 42 °F (at 7:00 AM)
Average temperature yesterday: 46 °F

Past Weeks' High & Low Weather Summary

 TemperatureHumidityPressure
High65 °F (Mar 25, 4:00 PM)98% (Mar 13, 7:00 AM)30.49 "Hg (Mar 13, 7:00 AM)
Low23 °F (Mar 20, 6:00 AM)20% (Mar 18, 4:00 PM)29.65 "Hg (Mar 26, 3:00 AM)
Average43 °F70%30.16 "Hg
* Reported Mar 13 6:00 AM — Mar 28 6:00 AM, Senftenberg, Weather by CustomWeather, © 2015

Note: Actual official high and low records may vary slightly from our data, if they occured in-between our weather recording intervals... More about our weather records

Advertising

Senftenberg weather history for previous 24 hours

 ConditionsComfort  
Time TempWeatherWind HumidityBarometerVisibility
6:00 AM
Sat, Mar 28
42 °FOvercast.3 mph87%30.14 "Hg5 mi
5:00 AM43 °FOvercast.3 mph88%30.12 "Hg5 mi
4:00 AM43 °FOvercast.5 mph88%30.11 "Hg4 mi
3:00 AM43 °FOvercast.5 mph89%30.10 "Hg5 mi
2:00 AM43 °FOvercast.3 mph88%30.09 "Hg6 mi
1:00 AM43 °FPassing clouds.3 mph88%30.09 "Hg6 mi
12:00 AM44 °FOvercast.5 mph87%30.08 "Hg7 mi
11:00 PM
Fri, Mar 27
44 °FLow clouds.5 mph85%30.07 "Hg8 mi
10:00 PM43 °FDrizzle. Low clouds.5 mph87%30.06 "Hg6 mi
9:00 PM45 °FOvercast.5 mph80%30.04 "Hg13 mi
8:00 PM44 °FOvercast.2 mph84%30.03 "Hg11 mi
7:00 PM44 °FPassing clouds.3 mph84%30.01 "Hg14 mi
6:00 PM46 °FPassing clouds.2 mph87%29.98 "Hg11 mi
5:00 PM50 °FPartly sunny.5 mph59%29.96 "Hg22 mi
4:00 PM52 °FOvercast.3 mph55%29.94 "Hg17 mi
3:00 PM51 °FOvercast.7 mph59%29.93 "Hg15 mi
2:00 PM52 °FOvercast.3 mph56%29.91 "Hg13 mi
1:00 PM50 °FOvercast.3 mph64%29.91 "Hg11 mi
12:00 PM51 °FScattered clouds.5 mph64%29.90 "Hg9 mi
11:00 AM46 °FOvercast.5 mph78%29.91 "Hg5 mi
10:00 AM45 °FFog.3 mph81%29.90 "Hg4 mi
9:00 AM44 °FFog.5 mph87%29.89 "Hg4 mi
8:00 AM43 °FFog.3 mph91%29.88 "Hg2 mi
7:00 AM42 °FFog.2 mph94%29.85 "Hg2 mi
Weather by CustomWeather, © 2015

See weather overviewHow to use our weather pages